Location: Montreal
(45.5000°N, 73.5833°W)
Time: 12:15:06
(UTC-05:00)

Vanguard 1 - Pass Details

Date: 25 October 2017
Orbit: 650 x 3834 km, 34.2° (Epoch: 16 November)

Event Time Altitude Azimuth Distance (km) Brightness Sun altitude
Rises 00:32:03 0° 236° (SW) 4,652 - -56.6°
Reaches altitude 10° 00:34:43 10° 230° (SW) 3,992 - -56.6°
Maximum altitude 00:45:28 49° 160° (SSE) 3,055 - -56.6°
Exits shadow 00:57:04 24° 102° (ESE) 5,089 13.5 -56.4°
Drops below altitude 10° 01:03:54 10° 94° (E) 6,592 14.2 -56.2°
Sets 01:09:52 0° 90° (E) 7,852 14.8 -56.0°
